Location: Wells
(51.2093°N, 2.6446°W)
Time: 00:56:40
(UTC+00:00)

ISS - Visible Passes

Search period start: 25 January 2026 00:00
Search period end: 04 February 2026 00:00
Orbit: 413 x 423 km, 51.6° (Epoch: 23 January)

Date Brightness Start Highest point End Pass type
(mag) Time Alt. Az. Time Alt. Az. Time Alt. Az.
25 Jan -3.8 17:40:47 10° W 17:44:07 86° SSW 17:47:29 10° ESE visible
25 Jan -2.2 19:17:40 10° W 19:20:30 31° SW 19:20:30 31° SW visible
26 Jan -2.7 18:29:31 10° W 18:32:42 43° SSW 18:34:45 19° SE visible
27 Jan -3.2 17:41:22 10° W 17:44:39 57° SSW 17:47:56 10° ESE visible
27 Jan -1.2 19:18:48 10° WSW 19:20:55 16° SW 19:22:04 14° SSW visible
28 Jan -1.5 18:30:16 10° W 18:32:57 23° SW 18:35:39 10° SSE visible
29 Jan -1.9 17:41:54 10° W 17:44:55 32° SSW 17:47:56 10° SE visible
30 Jan -0.5 18:31:56 10° WSW 18:32:55 11° SW 18:33:53 10° SSW visible
31 Jan -0.8 17:42:43 10° W 17:44:54 16° SW 17:47:05 10° S visible
